Погода в Сан-Хосе

Филиппины     10°00′26″N   125°35′57″E
темп.,
°C
ветер,
м/с
пор.,
м/с
влажн.,
%
обл.,
%
осадки,
мм/ч
давл.,
гПа
погр.,
м
29 ноября, пн
пн2923:00+28в478061 0.1 1010661
02:00+27в478099 0.2 1008447
05:00+27в578241 0.0 1008554
08:00+28в568136 0.2 1010676
11:00+28в56787 0.4 1009747
14:00+29в45755 0.7 1006804
17:00+28всв45785 0.1 1007572
20:00+27всв35815 0.1 1009353
30 ноября, вт
вт3023:00+27всв3580100 0.0 1009312
02:00+27всв2380100 0.0 1008224
05:00+27ссв2382100 0.0 1008219
08:00+27св227897 1.0 1010286
11:00+28сз2274100 0.5 1008415
14:00+29ссз2272100 1.0 1006638
17:00+28вюв3278100 1.0 1007268
20:00+28св1178100 1.3 1009248
1 декабря, ср
ср123:00+28ссз0177100 0.0 1008315
02:00+27с2380100 0.1 1007391
05:00+27с2383100 1.0 1007286
08:00+27ссз2481100 1.9 1010367
11:00+27сз3480100 0.9 1009445
14:00+28зсз2377100 0.9 1007448
17:00+28сз2274100 0.0 1007471
20:00+28с3375100 0.0 1009375
2 декабря, чт
чт223:00+27ссв2380100 0.1 1009229
02:00+27ссз3481100 2.1 1007395
05:00+27с4583100 1.8 1008416
08:00+27сз3480100 3.7 1010450
11:00+27зсз337771 0.6 1009575
14:00+27з3376100 0.6 1007400
17:00+28сз227458 0.0 1008541
20:00+27с2381100 1.1 1010215
3 декабря, пт
пт323:00+27ссз5683100 2.3 1010428
02:00+26ссз5687100 5.6 1008379
05:00+26с6786100 3.1 1009568
08:00+26с5789100 7.0 1011437
11:00+25ссв4695100 23.6 1009437
14:00+25с5793100 57.7 1008462
17:00+26ссв3683100 9.8 1010442
20:00+26с5882100 15.2 1011653